| time (UTC) | temp F | wind direction | speed knots | gust knots | rain 1hr in | rain 24hr in | rain mn in | humidity % | barometer mb |
| 20260506224553 | 61 | 45 | 1.7 | 3.5 | 0.00 | 0.00 | 0.00 | 24 | 1012.5 |
| 20260506223553 | 63 | 225 | 3.5 | 3.5 | 0.00 | 0.00 | 0.00 | 24 | 1012.6 |
| 20260506222553 | 63 | 224 | 2.6 | 3.5 | 0.00 | 0.00 | 0.00 | 24 | 1012.7 |
| 20260506221552 | 63 | 181 | 0.9 | 0.9 | 0.00 | 0.00 | 0.00 | 24 | 1012.7 |
| 20260506220552 | 63 | 181 | 0.9 | 0.9 | 0.00 | 0.00 | 0.00 | 24 | 1012.7 |
| 20260506215552 | 63 | 262 | 4.3 | 7.0 | 0.00 | 0.00 | 0.00 | 24 | 1012.7 |
| 20260506214551 | 63 | 270 | 6.1 | 7.0 | 0.00 | 0.00 | 0.00 | 24 | 1012.7 |
| 20260506213551 | 63 | 270 | 4.3 | 4.3 | 0.00 | 0.00 | 0.00 | 24 | 1012.6 |
| 20260506212551 | 63 | 270 | 4.3 | 4.3 | 0.00 | 0.00 | 0.00 | 24 | 1012.5 |
| 20260506211551 | 63 | 270 | 4.3 | 4.3 | 0.00 | 0.00 | 0.00 | 24 | 1012.4 |
| 20260506210550 | 63 | 203 | 4.3 | 7.0 | 0.00 | 0.00 | 0.00 | 24 | 1012.3 |
| 20260506205550 | 61 | 270 | 0.9 | 3.5 | 0.00 | 0.00 | 0.00 | 24 | 1012.0 |
| 20260506204550 | 61 | 234 | 0.9 | 3.5 | 0.00 | 0.00 | 0.00 | 24 | 1011.9 |
| 20260506203549 | 62 | 342 | 0.9 | 1.7 | 0.00 | 0.00 | 0.00 | 24 | 1012.0 |
| 20260506202549 | 63 | 257 | 1.7 | 3.5 | 0.00 | 0.00 | 0.00 | 24 | 1012.2 |
| 20260506201549 | 64 | 304 | 1.7 | 3.5 | 0.00 | 0.00 | 0.00 | 24 | 1012.4 |
| 20260506200549 | 64 | 259 | 2.6 | 3.5 | 0.00 | 0.00 | 0.00 | 24 | 1012.4 |
| 20260506195548 | 63 | 253 | 1.7 | 4.3 | 0.00 | 0.00 | 0.00 | 24 | 1012.4 |
| 20260506194548 | 63 | 276 | 1.7 | 3.5 | 0.00 | 0.00 | 0.00 | 24 | 1012.3 |
| 20260506193548 | 63 | 265 | 1.7 | 2.6 | 0.00 | 0.00 | 0.00 | 24 | 1012.2 |
| 20260506192547 | 63 | 278 | 1.7 | 3.5 | 0.00 | 0.00 | 0.00 | 24 | 1011.9 |
| 20260506191547 | 62 | 266 | 0.9 | 2.6 | 0.00 | 0.00 | 0.00 | 24 | 1011.8 |
| 20260506190547 | 63 | 266 | 0.0 | 2.6 | 0.00 | 0.00 | 0.00 | 24 | 1011.7 |
| 20260506185546 | 63 | 275 | 0.9 | 3.5 | 0.00 | 0.00 | 0.00 | 24 | 1011.7 |
| 20260506184546 | 65 | 203 | 0.9 | 2.6 | 0.00 | 0.00 | 0.00 | 23 | 1011.8 |
| 20260506183546 | 66 | 253 | 1.7 | 4.3 | 0.00 | 0.00 | 0.00 | 23 | 1011.9 |
| 20260506182546 | 67 | 225 | 3.5 | 5.2 | 0.00 | 0.00 | 0.00 | 23 | 1011.9 |
| 20260506181545 | 67 | 248 | 5.2 | 8.7 | 0.00 | 0.00 | 0.00 | 23 | 1011.9 |
| 20260506180545 | 68 | 256 | 3.5 | 8.7 | 0.00 | 0.00 | 0.00 | 23 | 1011.9 |
| 20260506175545 | 67 | 0 | 0.0 | 0.0 | 0.00 | 0.00 | 0.00 | 23 | 1011.9 |
| 20260506174544 | 67 | 270 | 0.0 | 0.0 | 0.00 | 0.00 | 0.00 | 23 | 1011.9 |
| 20260506173544 | 67 | 257 | 0.0 | 0.0 | 0.00 | 0.00 | 0.00 | 23 | 1011.9 |
| 20260506172544 | 68 | 258 | 2.6 | 4.3 | 0.00 | 0.00 | 0.00 | 23 | 1012.1 |
| 20260506171543 | -25 | 270 | 4.3 | 4.3 | 0.00 | 0.00 | 0.00 | 13 | 944.5 |
| 20260506170543 | 68 | 265 | 2.6 | 4.3 | 0.00 | 0.00 | 0.00 | 23 | 1012.2 |
| 20260506165543 | 68 | 232 | 0.9 | 1.7 | 0.00 | 0.00 | 0.00 | 22 | 1012.2 |
| 20260506164543 | 68 | 223 | 1.7 | 3.5 | 0.00 | 0.00 | 0.00 | 23 | 1012.2 |
| 20260506163542 | 69 | 257 | 3.5 | 4.3 | 0.00 | 0.00 | 0.00 | 22 | 1012.2 |
| 20260506162542 | 69 | 244 | 2.6 | 6.1 | 0.00 | 0.00 | 0.00 | 22 | 1012.3 |
| 20260506161542 | 69 | 256 | 2.6 | 4.3 | 0.00 | 0.00 | 0.00 | 22 | 1012.5 |
| 20260506160542 | 69 | 252 | 3.5 | 6.1 | 0.00 | 0.00 | 0.00 | 22 | 1012.6 |
| 20260506155541 | 70 | 241 | 4.3 | 6.1 | 0.00 | 0.00 | 0.00 | 22 | 1012.8 |
| 20260506154541 | 72 | 267 | 3.5 | 5.2 | 0.00 | 0.00 | 0.00 | 21 | 1013.0 |
| 20260506153541 | 73 | 265 | 3.5 | 4.3 | 0.00 | 0.00 | 0.00 | 21 | 1013.2 |
| 20260506152540 | 71 | 246 | 4.3 | 6.1 | 0.00 | 0.00 | 0.00 | 22 | 1013.1 |
| 20260506151540 | 71 | 225 | 3.5 | 6.1 | 0.00 | 0.00 | 0.00 | 22 | 1013.3 |
| 20260506150540 | 71 | 255 | 4.3 | 5.2 | 0.00 | 0.00 | 0.00 | 22 | 1013.1 |
| 20260506145539 | 72 | 238 | 3.5 | 4.3 | 0.00 | 0.00 | 0.00 | 21 | 1013.3 |
| 20260506144539 | 73 | 269 | 4.3 | 8.7 | 0.00 | 0.00 | 0.00 | 21 | 1013.4 |
| 20260506143539 | 74 | 256 | 1.7 | 3.5 | 0.00 | 0.00 | 0.00 | 21 | 1013.6 |
| 20260506142539 | 75 | 252 | 5.2 | 8.7 | 0.00 | 0.00 | 0.00 | 21 | 1013.6 |
| 20260506141538 | 70 | 210 | 7.0 | 8.7 | 0.00 | 0.00 | 0.00 | 22 | 1013.2 |
| 20260506140538 | 71 | 248 | 3.5 | 7.0 | 0.00 | 0.00 | 0.00 | 22 | 1013.3 |
| 20260506135538 | 74 | 242 | 4.3 | 8.7 | 0.00 | 0.00 | 0.00 | 21 | 1013.6 |
| 20260506134537 | 72 | 254 | 6.1 | 8.7 | 0.00 | 0.00 | 0.00 | 21 | 1013.4 |
| 20260506133537 | 72 | 227 | 5.2 | 7.8 | 0.00 | 0.00 | 0.00 | 21 | 1013.3 |
| 20260506132537 | 76 | 271 | 6.1 | 7.8 | 0.00 | 0.00 | 0.00 | 20 | 1013.6 |
| 20260506131537 | 74 | 300 | 2.6 | 7.8 | 0.00 | 0.00 | 0.00 | 21 | 1013.5 |
| 20260506130536 | 75 | 279 | 2.6 | 4.3 | 0.00 | 0.00 | 0.00 | 21 | 1013.4 |
| 20260506125536 | 73 | 251 | 2.6 | 5.2 | 0.00 | 0.00 | 0.00 | 21 | 1013.5 |
| 20260506124536 | 76 | 285 | 2.6 | 5.2 | 0.00 | 0.00 | 0.00 | 20 | 1013.7 |
| 20260506123535 | 77 | 270 | 4.3 | 6.1 | 0.00 | 0.00 | 0.00 | 20 | 1013.9 |
| 20260506122535 | 79 | 265 | 6.1 | 7.0 | 0.00 | 0.00 | 0.00 | 20 | 1013.8 |
| 20260506121535 | 77 | 254 | 5.2 | 7.0 | 0.00 | 0.00 | 0.00 | 20 | 1013.6 |
| 20260506120534 | 78 | 234 | 7.0 | 7.8 | 0.00 | 0.00 | 0.00 | 20 | 1014.0 |
| 20260506115534 | 82 | 278 | 1.7 | 6.1 | 0.00 | 0.00 | 0.00 | 20 | 1014.2 |
| 20260506114534 | 77 | 76 | 5.2 | 7.0 | 0.00 | 0.00 | 0.00 | 20 | 1013.9 |
| 20260506113534 | 75 | 301 | 5.2 | 7.0 | 0.00 | 0.00 | 0.00 | 21 | 1013.8 |
| 20260506112533 | 78 | 238 | 4.3 | 5.2 | 0.00 | 0.00 | 0.00 | 20 | 1014.1 |
| 20260506111533 | 76 | 283 | 4.3 | 5.2 | 0.00 | 0.00 | 0.00 | 20 | 1013.9 |
| 20260506105532 | 74 | 241 | 4.3 | 7.0 | 0.00 | 0.00 | 0.00 | 21 | 1014.2 |
| 20260506104532 | 75 | 292 | 3.5 | 6.1 | 0.00 | 0.00 | 0.00 | 21 | 1014.0 |
| 20260506103532 | 74 | 248 | 2.6 | 7.0 | 0.00 | 0.00 | 0.00 | 21 | 1014.0 |
| 20260506102532 | 76 | 286 | 2.6 | 7.8 | 0.00 | 0.00 | 0.00 | 20 | 1014.2 |
| 20260506101531 | 76 | 263 | 3.5 | 7.8 | 0.00 | 0.00 | 0.00 | 20 | 1014.1 |
| 20260506100531 | 73 | 269 | 3.5 | 7.8 | 0.00 | 0.00 | 0.00 | 21 | 1014.0 |
| 20260506095531 | 74 | 257 | 5.2 | 7.0 | 0.00 | 0.00 | 0.00 | 21 | 1014.2 |
| 20260506094530 | 71 | 254 | 4.3 | 6.1 | 0.00 | 0.00 | 0.00 | 22 | 1014.0 |
| 20260506093530 | 71 | 247 | 3.5 | 6.1 | 0.00 | 0.00 | 0.00 | 22 | 1014.0 |
| 20260506092530 | 71 | 221 | 3.5 | 6.1 | 0.00 | 0.00 | 0.00 | 22 | 1013.9 |
| 20260506091529 | 71 | 212 | 3.5 | 5.2 | 0.00 | 0.00 | 0.00 | 22 | 1014.0 |
| 20260506090529 | 72 | 228 | 2.6 | 3.5 | 0.00 | 0.00 | 0.00 | 21 | 1014.0 |
| 20260506085529 | 71 | 264 | 2.6 | 4.3 | 0.00 | 0.00 | 0.00 | 22 | 1013.9 |
| 20260506084529 | 71 | 273 | 4.3 | 7.0 | 0.00 | 0.00 | 0.00 | 22 | 1013.9 |
| 20260506083528 | 70 | 257 | 3.5 | 5.2 | 0.00 | 0.00 | 0.00 | 22 | 1013.8 |
| 20260506082528 | 68 | 259 | 2.6 | 4.3 | 0.00 | 0.00 | 0.00 | 23 | 1013.7 |
| 20260506081528 | 67 | 316 | 3.5 | 5.2 | 0.00 | 0.00 | 0.00 | 23 | 1013.7 |
| 20260506080527 | 67 | 262 | 3.5 | 5.2 | 0.00 | 0.00 | 0.00 | 23 | 1013.6 |
| 20260506073527 | 67 | 249 | 3.5 | 7.0 | 0.00 | 0.00 | 0.00 | 23 | 1013.6 |
| 20260506072526 | 67 | 281 | 1.7 | 4.3 | 0.00 | 0.00 | 0.00 | 23 | 1013.6 |
| 20260506071526 | 65 | 284 | 3.5 | 7.0 | 0.00 | 0.00 | 0.00 | 23 | 1013.4 |
| 20260506070526 | 63 | 300 | 3.5 | 7.0 | 0.00 | 0.00 | 0.00 | 24 | 1013.5 |
| 20260506061524 | 61 | 283 | 2.6 | 5.2 | 0.00 | 0.00 | 0.00 | 24 | 1013.1 |
| 20260506060524 | 62 | 296 | 3.5 | 5.2 | 0.00 | 0.00 | 0.00 | 24 | 1013.2 |
| 20260506050522 | 55 | 0 | 0.0 | 0.0 | 0.00 | 0.00 | 0.00 | 26 | 1012.5 |
| 20260506044522 | 55 | 0 | 0.0 | 0.0 | 0.00 | 0.00 | 0.00 | 26 | 1012.4 |
| 20260506043521 | 55 | 0 | 0.0 | 0.0 | 0.00 | 0.00 | 0.00 | 26 | 1012.2 |
| 20260506042521 | 55 | 0 | 0.0 | 0.0 | 0.00 | 0.00 | 0.00 | 26 | 1012.1 |
| 20260506041521 | 55 | 0 | 0.0 | 0.0 | 0.00 | 0.00 | 0.00 | 26 | 1012.1 |
| 20260506040520 | 55 | 0 | 0.0 | 0.0 | 0.00 | 0.00 | 0.00 | 26 | 1012.1 |
| 20260506035520 | 55 | 314 | 0.0 | 1.7 | 0.00 | 0.00 | 0.00 | 26 | 1012.0 |
| 20260506034520 | 55 | 315 | 1.7 | 1.7 | 0.00 | 0.00 | 0.00 | 26 | 1011.9 |
| 20260506033520 | 55 | 315 | 1.7 | 1.7 | 0.00 | 0.00 | 0.00 | 26 | 1012.1 |
| 20260506032519 | 56 | 315 | 1.7 | 1.7 | 0.00 | 0.00 | 0.00 | 26 | 1012.0 |
| 20260506031519 | 56 | 288 | 1.7 | 3.5 | 0.00 | 0.00 | 0.00 | 26 | 1012.0 |
| 20260506030519 | 56 | 225 | 3.5 | 3.5 | 0.00 | 0.00 | 0.00 | 26 | 1011.9 |
| 20260506025518 | 56 | 225 | 3.5 | 3.5 | 0.00 | 0.00 | 0.00 | 26 | 1011.9 |
| 20260506024518 | 56 | 225 | 3.5 | 3.5 | 0.00 | 0.00 | 0.00 | 26 | 1012.0 |
| 20260506023518 | 56 | 225 | 3.5 | 3.5 | 0.00 | 0.00 | 0.00 | 26 | 1012.0 |
| 20260506022517 | 56 | 225 | 3.5 | 3.5 | 0.00 | 0.00 | 0.00 | 26 | 1011.9 |
| 20260506021517 | 56 | 225 | 3.5 | 3.5 | 0.00 | 0.00 | 0.00 | 26 | 1012.0 |
| 20260506020517 | 56 | 225 | 3.5 | 3.5 | 0.00 | 0.00 | 0.00 | 26 | 1011.9 |
| 20260506015517 | 56 | 225 | 3.5 | 3.5 | 0.00 | 0.00 | 0.00 | 26 | 1011.9 |
| 20260506014516 | 56 | 140 | 0.9 | 3.5 | 0.00 | 0.00 | 0.00 | 26 | 1011.9 |
| 20260506013516 | 56 | 270 | 2.6 | 2.6 | 0.00 | 0.00 | 0.00 | 26 | 1011.8 |
| 20260506012516 | 57 | 270 | 2.6 | 2.6 | 0.00 | 0.00 | 0.00 | 26 | 1011.9 |
| 20260506011515 | 57 | 270 | 2.6 | 2.6 | 0.00 | 0.00 | 0.00 | 26 | 1011.9 |
| 20260506010515 | 57 | 270 | 2.6 | 2.6 | 0.00 | 0.00 | 0.00 | 26 | 1011.8 |
| 20260506005515 | 57 | 270 | 2.6 | 2.6 | 0.00 | 0.00 | 0.00 | 26 | 1011.9 |
| 20260506004515 | 57 | 270 | 2.6 | 2.6 | 0.00 | 0.00 | 0.00 | 26 | 1011.9 |
| 20260506003514 | 57 | 265 | 2.6 | 3.5 | 0.00 | 0.00 | 0.00 | 26 | 1012.0 |
| 20260506002514 | 58 | 135 | 3.5 | 3.5 | 0.00 | 0.00 | 0.00 | 25 | 1012.0 |
| 20260506001514 | 58 | 135 | 3.5 | 3.5 | 0.00 | 0.00 | 0.00 | 25 | 1012.0 |
| 20260506000513 | 58 | 211 | 2.6 | 3.5 | 0.00 | 0.00 | 0.00 | 25 | 1012.0 |
| 20260505235513 | 58 | 270 | 1.7 | 1.7 | 0.00 | 0.00 | 0.00 | 25 | 1012.0 |
| 20260505234513 | 58 | 270 | 1.7 | 1.7 | 0.00 | 0.00 | 0.00 | 25 | 1012.0 |
| 20260505233513 | 64 | 270 | 1.7 | 1.7 | 0.00 | 0.00 | 0.00 | 24 | 1012.6 |
| 20260505232512 | 64 | 270 | 1.7 | 1.7 | 0.00 | 0.00 | 0.00 | 24 | 1012.6 |
| 20260505231512 | 64 | 270 | 0.0 | 1.7 | 0.00 | 0.00 | 0.00 | 24 | 1012.7 |
| 20260505230514 | 64 | 0 | 0.0 | 0.0 | 0.00 | 0.00 | 0.00 | 24 | 1012.7 |
| 20260505225511 | 64 | 0 | 0.0 | 0.0 | 0.00 | 0.00 | 0.00 | 24 | 1012.7 |